Eastover, SC

3:27 AM EDT on July 24, 2017 (GMT -0400)
McEntire Angs

Weather History for KMMT - December, 2013

Change the Weather History Date:

Thursday, December 26, 2013

  Actual Average Record
Temperature  
Mean Temperature 43 °F -  
Max Temperature 52 °F 54 °F 74 °F (2015)
Min Temperature 31 °F 31 °F 30 °F (2010)
Degree Days  
Heating Degree Days 22    
Moisture  
Dew Point 30 °F    
Average Humidity 66    
Maximum Humidity 97    
Minimum Humidity 47    
Precipitation  
Precipitation 0.01 in - - ()
Sea Level Pressure  
Sea Level Pressure 30.34 in    
Wind  
Wind Speed 3 mph (North)    
Max Wind Speed 6 mph    
Max Gust Speed -    
Visibility 10 miles    
Events Rain    
Averages and records for this station are not official NWS values.
T = Trace of Precipitation, MM = Missing Value Source: NWS Daily Summary

Daily Weather History Graph

Daily Weather History Graph

Search for Another Location

Airport or City:

Trip Planner

Search our weather history database for the weather conditions in past years. The results will help you decide how hot, cold, wet, or windy it might be!

Date:

Astronomy

Dec. 26, 2013 Rise Set
Actual Time 7:26 AM EST 5:21 PM EST
Civil Twilight 6:59 AM EST 5:48 PM EST
Nautical Twilight 6:27 AM EST 6:20 PM EST
Astronomical Twilight 5:57 AM EST 6:50 PM EST
Moon 1:06 AM EST (12/26) 12:45 PM EST (12/26)
Length of Visible Light 10h 49m
Length of Day
9h 54m
Last Quarter, 38% of the Moon is Illuminated
Dec 26
Last Quarter
Jan 1
New
Jan 7
First Quarter
Jan 15
Full
Jan 24
Last Quarter

Hourly Weather History & Observations

Time (EST) Temp. Windchill Dew Point Humidity Pressure Visibility Wind Dir Wind Speed Gust Speed Precip Events Conditions
12:58 AM 40.1 °F 36.1 °F 21.4 °F 47% 30.38 in 10.0 mi NE 5.8 mph - 0.00 in Rain Light Rain
1:58 AM 39.7 °F 37.6 °F 21.6 °F 48% 30.36 in 10.0 mi NNE 3.5 mph - 0.00 in   Overcast
2:58 AM 39.6 °F 36.3 °F 22.1 °F 50% 30.35 in 10.0 mi North 4.6 mph - N/A   Overcast
3:58 AM 39.2 °F - 23.0 °F 52% 30.36 in 10.0 mi Variable 2.3 mph - 0.00 in   Overcast
4:58 AM 38.8 °F - 23.4 °F 54% 30.35 in 10.0 mi NNW 2.3 mph - 0.00 in   Overcast
5:58 AM 39.2 °F - 23.5 °F 53% 30.35 in 10.0 mi NNE 2.3 mph - 0.00 in   Overcast
6:58 AM 39.4 °F - 24.4 °F 55% 30.35 in 10.0 mi Variable 2.3 mph - N/A   Overcast
7:58 AM 39.6 °F - 23.9 °F 54% 30.35 in 10.0 mi Calm Calm - N/A   Overcast
8:58 AM 40.8 °F - 23.2 °F 50% 30.35 in 10.0 mi North 1.2 mph - N/A   Overcast
9:58 AM 39.2 °F 35.9 °F 30.2 °F 70% 30.38 in 10.0 mi NNW 4.6 mph - 0.01 in Rain Light Rain
10:58 AM 41.2 °F 39.2 °F 32.9 °F 72% 30.37 in 10.0 mi Variable 3.5 mph - 0.00 in   Overcast
11:58 AM 45.1 °F - 34.0 °F 65% 30.35 in 10.0 mi Calm Calm - N/A   Overcast
12:58 PM 49.3 °F - 32.7 °F 53% 30.31 in 10.0 mi North 5.8 mph - N/A   Overcast
1:58 PM 51.3 °F - 34.0 °F 52% 30.28 in 10.0 mi NW 4.6 mph - N/A   Overcast
2:58 PM 52.2 °F - 34.5 °F 51% 30.27 in 10.0 mi Calm Calm - N/A   Scattered Clouds
3:58 PM 51.6 °F - 35.6 °F 54% 30.27 in 10.0 mi North 3.5 mph - N/A   Overcast
4:58 PM 48.9 °F - 36.3 °F 62% 30.28 in 10.0 mi ESE 2.3 mph - N/A   Scattered Clouds
5:58 PM 44.6 °F - 38.8 °F 80% 30.30 in 10.0 mi Calm Calm - N/A   Clear
6:58 PM 39.7 °F - 37.8 °F 93% 30.32 in 10.0 mi Calm Calm - N/A   Clear
7:58 PM 38.1 °F - 35.8 °F 91% 30.34 in 10.0 mi Calm Calm - N/A   Clear
8:58 PM 35.4 °F - 34.2 °F 95% 30.34 in 10.0 mi Calm Calm - N/A   Clear
9:58 PM 34.3 °F - 33.6 °F 97% 30.35 in 10.0 mi NNW 2.3 mph - N/A   Clear
10:58 PM 34.5 °F - 33.8 °F 97% 30.36 in 8.0 mi Calm Calm - N/A   Clear
11:58 PM 31.5 °F 28.1 °F 30.7 °F 97% 30.35 in 10.0 mi North 3.5 mph - N/A   Clear